Theta_e
327 323 322 315 308 307 306 306 308 320 323 327 330 326 315 312 315 315 339 355 363 360 364 364 365 363 361 361 361 363 364 364 365 364 363 363 363 362 362 362 362 361 358 355 357 358 359 358 357
325 318 316 311 306 303 307 306 313 319 323 321 315 314 311 308 313 314 322 358 362 361 364 364 365 364 361 360 360 361 363 363 363 363 363 363 363 361 362 361 360 359 355 353 356 358 358 357 358
322 317 312 309 305 304 306 307 312 314 315 315 311 312 309 309 313 313 319 361 361 361 364 367 365 364 362 360 359 360 361 362 362 362 362 362 363 362 362 361 360 357 353 353 355 357 356 356 357
318 313 310 305 304 305 305 308 313 312 312 312 311 307 310 313 322 326 347 363 359 359 363 365 364 364 362 361 360 359 359 360 361 361 361 361 361 362 362 361 359 356 354 352 353 355 353 353 354
312 311 306 303 304 304 306 310 312 311 309 310 310 306 309 319 342 340 361 361 358 358 363 363 361 362 362 361 360 360 360 359 359 359 359 360 360 361 361 361 360 358 356 354 352 351 351 351 351
310 308 303 302 303 305 307 312 311 310 309 307 308 307 314 342 346 355 360 361 362 361 362 362 362 363 363 361 360 360 360 359 360 358 358 358 358 359 360 360 360 359 358 356 354 352 351 352 353
308 306 302 301 303 304 306 310 311 309 308 307 309 305 323 341 348 358 361 363 364 363 361 362 363 363 363 361 361 360 359 359 358 358 359 357 356 357 358 359 360 360 360 359 357 355 354 353 351
308 308 301 302 302 304 306 307 309 310 306 309 310 307 316 338 341 354 358 359 361 361 361 362 363 363 364 364 361 360 359 359 358 358 357 357 358 356 356 357 358 359 360 360 359 358 357 355 353
306 305 301 302 302 304 305 307 305 307 307 306 307 308 321 329 337 349 350 348 349 348 355 356 355 361 364 364 363 362 361 360 359 359 357 357 359 357 356 357 357 356 358 359 360 359 358 356 355
306 304 303 305 306 306 305 306 306 306 306 304 310 319 320 322 336 345 346 343 342 337 334 341 350 353 349 347 348 350 356 356 358 359 362 363 361 360 356 356 357 358 358 360 360 359 359 357 351
303 303 303 304 305 305 306 304 305 306 304 307 311 317 315 317 326 329 332 334 330 327 328 329 332 334 331 330 331 333 334 337 345 354 358 358 356 359 358 353 353 356 356 354 354 354 353 351 351
302 303 303 304 304 304 304 305 304 306 307 310 314 314 312 315 317 319 320 321 322 324 325 325 327 329 330 327 327 330 329 332 334 342 346 347 346 349 351 353 356 353 352 355 354 352 352 354 354
302 302 303 303 304 304 304 304 304 305 306 309 309 309 311 314 315 318 321 322 323 322 323 324 326 329 330 330 329 330 330 331 334 336 337 337 338 342 345 348 351 351 355 354 355 355 353 351 351
301 301 301 302 303 303 304 302 303 306 307 306 307 309 311 313 314 317 320 321 322 323 323 324 325 329 328 330 331 330 331 330 329 330 329 331 332 334 334 336 338 343 344 345 351 354 353 353 353
301 300 301 301 302 302 304 300 301 305 306 306 306 308 310 312 314 316 319 321 322 324 324 325 325 328 330 330 329 331 329 328 329 330 331 330 331 332 334 330 332 334 340 344 344 346 352 352 350
299 299 297 301 300 300 303 299 304 306 305 305 306 306 308 311 314 317 320 322 324 324 324 324 321 325 328 328 328 329 331 331 330 332 330 328 328 328 330 326 326 328 332 336 342 342 341 346 349
296 294 295 297 300 299 300 298 304 305 305 306 306 306 308 310 313 317 319 321 323 325 325 324 325 323 325 328 327 329 332 329 330 331 329 328 325 324 327 325 327 332 329 330 333 339 344 344 341
293 294 294 296 299 298 298 298 301 303 303 305 306 306 308 309 312 316 319 320 322 322 324 325 324 326 326 325 327 327 327 327 327 325 324 327 324 324 325 324 327 329 326 325 326 329 331 334 339
295 294 294 296 299 298 299 299 301 303 301 303 303 305 307 309 313 316 318 319 319 320 321 324 324 325 324 322 322 322 320 322 321 321 322 322 322 321 323 321 324 326 326 326 327 325 325 325 332
296 295 295 298 299 299 299 299 303 303 302 304 305 305 306 309 312 313 317 318 317 318 322 323 323 323 323 323 323 322 321 320 318 319 320 319 318 319 319 320 321 324 323 325 325 326 322 323 327
296 296 296 296 297 299 298 298 300 304 305 306 306 308 308 309 311 313 315 316 317 318 320 322 322 323 323 322 319 318 317 317 316 315 313 314 316 316 318 318 318 321 323 320 323 324 324 319 324
294 299 298 296 295 292 297 291 297 301 302 304 307 307 306 308 312 314 315 315 316 317 320 321 320 320 319 320 317 317 315 312 313 312 312 313 315 315 316 317 318 319 319 320 322 322 323 323 320
295 297 297 296 296 294 294 292 297 298 298 302 306 307 306 308 310 312 314 315 316 318 318 318 319 317 318 318 316 315 314 312 312 312 313 314 314 314 314 316 317 319 318 320 321 322 323 322 321
299 297 297 296 295 289 294 293 294 297 299 301 306 308 310 310 309 312 315 316 316 317 316 316 316 317 317 316 315 315 314 313 311 311 310 310 311 312 313 314 316 316 317 318 319 321 322 322 322
298 297 291 288 288 287 292 291 295 300 300 302 306 309 309 310 309 310 311 312 314 314 314 314 314 315 315 314 314 314 314 313 312 311 309 309 309 310 312 314 313 313 315 315 317 318 319 320 320
296 296 291 284 285 289 292 290 296 304 305 306 306 306 306 306 308 309 312 313 314 314 314 313 313 314 314 313 314 314 313 310 310 310 309 308 309 310 313 312 313 313 314 314 315 314 315 319 319
294 292 297 291 291 289 292 296 300 303 304 304 305 305 305 306 308 310 312 314 315 314 313 313 313 313 313 313 312 312 312 312 310 310 310 309 310 310 311 312 312 312 313 313 314 312 314 315 319
298 299 292 293 284 283 289 290 293 300 303 303 304 305 307 308 309 311 313 315 314 314 313 312 312 312 312 312 311 311 311 311 310 309 309 310 310 311 311 311 311 311 311 310 310 311 313 314 315
295 294 295 295 292 287 285 290 302 302 305 305 306 307 308 309 310 312 313 314 313 311 310 310 310 310 310 311 311 310 310 309 309 309 309 310 310 310 309 309 309 308 307 308 308 309 310 310 313
297 297 297 294 290 292 291 291 303 306 307 308 307 308 310 311 312 312 313 311 310 309 309 309 310 309 310 310 310 309 309 308 308 309 309 310 309 310 310 309 307 306 306 306 306 306 307 308 310
Wind_Speed
1 3 3 3 4 2 3 3 2 7 4 3 9 5 7 6 4 6 5 5 6 15 13 12 10 11 12 11 11 12 12 11 11 11 12 12 11 12 10 8 7 6 6 7 8 9 9 8 8
3 3 2 0 4 5 6 1 7 4 7 11 13 9 7 5 3 3 2 6 8 12 11 10 9 9 11 12 12 11 12 11 10 11 11 11 10 9 8 7 5 5 5 5 6 7 7 7 6
4 1 3 2 2 8 5 4 10 12 11 7 6 6 3 4 5 4 7 6 11 11 10 11 10 9 10 8 7 8 10 11 11 11 10 10 10 9 8 7 4 3 4 5 4 4 5 5 4
3 3 3 4 9 4 1 6 13 12 7 5 12 9 3 6 6 6 2 10 13 11 10 12 11 11 11 10 9 7 7 8 9 9 9 9 9 8 8 7 6 4 3 2 2 3 2 2 2
2 2 3 3 5 1 2 9 8 9 5 8 3 6 3 4 6 3 9 11 12 11 10 11 11 10 11 11 10 9 8 7 7 6 6 7 7 6 5 5 5 4 4 3 2 1 1 0 2
2 2 4 9 6 3 3 10 9 5 5 8 10 7 3 5 8 8 11 13 11 11 10 10 10 9 10 9 9 8 8 7 7 6 5 4 4 5 4 2 1 1 1 1 1 1 1 3 2
2 3 3 4 6 7 5 7 7 8 8 5 8 5 3 6 6 10 12 13 12 11 10 8 9 9 9 8 8 8 7 7 6 5 4 3 3 3 4 4 3 3 3 4 3 3 3 2 5
3 1 6 5 8 8 6 5 7 8 4 7 2 6 6 5 7 12 14 13 13 11 11 10 8 9 8 8 8 7 7 6 5 4 2 1 2 3 5 5 6 6 6 6 5 5 5 4 4
2 3 7 8 9 6 5 6 4 2 9 4 2 3 11 12 10 14 15 14 13 11 9 10 9 9 9 9 9 7 7 5 5 4 3 4 2 3 4 3 6 8 8 9 8 8 7 7 7
3 3 7 4 5 9 8 6 8 7 9 6 13 12 12 11 12 15 14 13 14 12 11 10 10 12 10 8 9 9 9 7 6 4 4 1 2 3 5 5 6 9 10 10 9 9 8 9 7
4 3 3 5 4 7 10 5 2 9 4 10 20 19 14 12 12 15 13 14 14 13 11 12 11 12 11 8 6 4 4 4 5 7 5 3 3 3 2 3 4 5 5 7 7 8 7 8 8
4 3 3 4 6 7 10 8 6 7 3 11 19 21 15 15 14 16 15 15 14 14 12 10 10 10 8 6 5 5 4 4 4 5 6 4 3 3 3 4 4 4 5 7 7 6 9 10 10
4 1 3 1 7 5 7 5 2 7 5 14 16 15 17 14 14 11 13 13 13 13 11 9 9 9 7 8 5 5 5 5 5 5 6 5 4 4 4 4 4 3 5 6 7 8 8 10 10
2 1 2 1 3 1 7 3 2 7 8 15 17 16 16 17 16 13 13 14 12 12 11 9 9 8 8 7 7 5 4 4 4 4 4 5 4 4 4 5 5 6 5 5 7 9 9 9 10
3 5 2 5 5 2 4 6 8 4 9 17 17 15 16 16 16 19 19 16 15 11 11 10 9 7 7 7 5 4 4 4 3 3 4 5 5 4 5 5 5 6 6 9 7 6 8 10 10
3 2 8 5 7 2 9 15 11 10 12 17 18 15 16 18 20 14 13 14 13 12 12 10 8 8 6 5 4 3 3 2 1 1 3 5 5 6 6 6 6 6 7 7 7 7 7 6 8
1 6 6 3 6 3 12 8 13 6 13 16 18 16 16 17 14 13 13 13 13 12 12 11 9 8 7 5 4 3 4 2 2 1 3 4 6 7 7 7 7 7 6 6 7 7 7 7 5
8 7 5 7 7 5 9 12 7 5 14 17 19 17 17 19 23 18 16 13 11 10 10 10 8 9 7 5 4 3 2 1 1 2 3 6 6 8 8 7 8 7 6 7 7 8 8 8 7
4 3 4 2 3 5 10 11 13 10 10 13 14 15 17 19 17 15 15 14 12 11 11 12 11 8 6 3 3 2 1 1 2 3 5 7 8 9 9 8 8 8 8 8 8 7 8 8 7
4 4 5 6 6 6 8 12 11 7 9 14 17 18 20 19 16 17 18 16 14 13 12 10 8 7 5 4 2 1 1 3 4 3 4 6 8 10 10 9 9 9 9 10 9 8 7 7 7
6 8 5 7 3 2 5 14 10 8 11 11 16 17 20 24 23 20 20 19 16 15 14 11 10 8 6 5 4 3 3 3 3 3 5 6 9 10 10 11 10 11 9 9 9 8 9 8 7
7 13 7 6 5 7 2 7 5 7 10 10 16 16 16 19 18 19 20 19 18 16 13 11 9 9 7 7 4 3 1 4 4 6 7 9 9 11 11 11 11 10 9 10 9 8 8 8 9
1 2 6 4 6 3 6 7 3 3 9 13 12 10 10 14 18 21 22 21 18 15 13 10 10 8 7 6 4 3 3 4 5 6 10 10 9 10 11 11 10 10 9 9 10 10 10 9 9
11 8 6 4 2 9 10 10 7 6 5 4 3 9 9 9 16 20 20 18 17 14 12 11 12 10 8 6 4 4 5 5 6 9 9 9 9 9 9 10 10 10 10 11 10 11 12 11 11
5 8 3 5 6 7 2 7 10 6 5 9 13 12 11 12 12 16 20 21 17 15 13 11 11 9 7 5 6 5 5 6 8 10 10 12 9 9 10 10 10 9 10 11 11 12 13 13 12
15 11 6 6 6 2 4 8 3 2 2 5 8 9 6 6 9 16 19 19 18 16 14 12 10 8 6 6 6 5 6 6 8 10 10 10 10 10 12 12 11 12 12 11 12 11 12 14 13
7 10 5 4 2 5 8 8 11 9 7 4 5 3 3 6 9 14 18 17 15 13 12 11 10 8 7 6 5 6 7 9 11 13 12 10 11 11 13 13 13 13 14 14 14 12 13 14 15
6 11 5 1 6 9 7 7 9 6 8 4 5 5 6 9 13 16 17 15 12 10 9 9 8 8 7 6 6 7 9 11 12 12 14 14 13 13 13 14 14 14 14 14 13 13 14 15 14
6 8 3 2 4 8 10 8 7 11 8 9 9 9 12 14 16 16 14 11 8 7 9 9 8 8 7 6 6 8 10 12 12 12 13 13 13 13 13 13 14 14 14 14 14 15 16 18 17
4 10 14 7 15 4 8 16 8 8 9 11 12 14 14 15 15 13 11 10 10 11 11 11 9 8 7 6 8 10 11 12 13 13 14 13 14 13 14 14 14 14 13 12 14 15 14 17 19
Wind_Direction
118 187 157 190 231 248 224 154 60 123 126 79 119 110 86 35 33 74 64 89 116 138 139 142 137 135 126 117 115 110 110 114 117 121 124 129 135 138 137 138 146 146 136 132 138 139 131 129 124
133 144 138 142 239 213 181 108 133 102 116 117 96 97 63 69 32 53 107 28 127 129 130 134 124 127 127 130 128 123 119 114 116 119 122 126 127 132 133 130 141 143 134 135 142 142 134 131 126
148 274 211 223 190 210 186 114 117 116 123 108 100 51 60 12 8 24 360 133 127 124 123 116 105 99 99 94 92 105 117 125 124 124 126 130 131 130 127 126 123 132 138 141 144 141 139 138 131
173 171 120 236 209 165 181 122 140 132 106 82 117 92 107 70 325 329 87 121 128 125 120 108 99 94 96 97 97 96 99 110 122 130 131 134 136 133 136 138 137 130 132 135 128 127 133 129 124
73 196 175 211 200 156 188 136 145 132 102 113 142 124 89 59 10 75 120 119 119 119 120 116 115 114 111 112 111 110 107 99 101 116 134 142 140 136 139 147 154 153 150 149 151 152 201 250 345
148 274 191 194 186 163 148 154 140 117 123 133 119 114 83 36 68 100 114 115 117 123 126 124 119 114 111 110 106 104 106 107 108 106 116 129 137 147 157 172 201 221 216 183 200 212 231 288 292
201 213 184 197 182 167 156 162 162 136 134 121 123 95 98 72 75 107 109 111 112 118 116 113 113 108 104 103 106 105 102 102 105 114 122 131 159 182 203 210 221 256 287 295 297 299 301 285 302
127 171 158 188 195 173 146 133 128 143 107 109 136 151 157 125 113 114 107 101 100 108 108 106 105 98 92 94 97 104 107 104 101 104 119 150 198 214 227 249 242 269 267 265 273 282 293 297 290
166 189 193 181 182 153 154 147 128 116 131 97 51 115 123 127 134 122 113 104 97 85 91 97 96 95 90 77 78 110 108 115 135 144 119 192 246 256 255 282 284 263 267 275 279 280 283 287 263
206 227 198 191 183 168 161 162 140 153 142 90 100 108 121 136 148 131 131 120 113 108 95 95 99 98 86 83 75 68 65 56 47 29 11 330 286 279 284 289 285 276 270 269 265 272 280 272 274
160 244 184 194 196 177 160 159 84 138 173 171 154 147 144 140 130 122 119 120 118 113 109 99 98 92 93 87 81 72 66 67 60 56 46 29 345 324 289 274 285 288 256 270 260 263 257 264 273
217 223 196 147 160 152 169 138 159 192 112 166 155 149 148 151 139 136 132 134 135 127 120 119 109 100 98 97 83 81 71 63 58 48 38 31 9 13 325 300 290 260 275 279 263 272 277 272 269
213 36 177 315 159 120 142 179 223 201 88 143 147 156 158 154 145 143 140 141 139 137 132 120 110 98 95 87 87 78 72 68 64 59 48 36 17 355 327 321 297 287 296 278 279 268 266 270 268
149 120 95 161 160 90 188 141 204 228 123 143 160 169 169 167 162 149 162 158 158 144 136 126 114 115 109 98 93 87 76 76 63 54 37 30 5 354 339 327 320 305 298 295 292 283 275 272 271
117 157 120 161 172 175 155 229 218 141 176 169 177 178 178 181 174 178 175 169 160 156 143 138 130 126 115 110 109 97 89 78 58 39 23 8 4 359 342 331 316 311 310 301 284 281 271 257 261
122 132 188 158 171 135 205 241 228 195 179 189 186 181 188 191 195 187 182 171 166 157 156 155 148 144 133 131 137 139 142 124 86 2 340 338 336 337 322 316 311 313 302 297 293 285 279 280 260
49 200 204 205 212 130 209 252 239 200 199 199 194 187 192 195 203 205 197 185 174 170 166 167 165 158 159 164 155 153 156 175 156 240 291 304 313 322 313 307 307 305 300 293 295 290 296 287 296
196 195 198 201 171 207 216 236 238 258 212 208 203 197 195 199 210 198 194 191 182 178 172 167 173 167 164 161 152 139 157 165 271 320 314 311 314 309 303 298 293 294 292 290 296 300 296 297 299
128 166 199 207 176 224 231 242 248 214 211 217 217 212 210 208 204 196 194 190 183 184 180 177 175 166 162 167 161 165 214 295 298 315 319 317 316 313 306 295 288 285 281 293 292 293 293 287 273
196 215 223 268 233 220 244 251 252 210 220 217 219 217 217 217 194 195 193 192 191 185 188 178 176 173 179 174 147 186 224 237 290 297 301 312 307 301 297 296 291 284 283 280 282 286 291 280 272
201 213 209 239 140 226 283 263 238 239 236 229 229 225 219 214 205 195 191 194 188 189 188 185 179 177 179 174 158 191 213 223 254 314 314 325 306 302 293 291 287 283 275 276 278 276 278 278 273
233 211 226 206 207 246 299 277 238 236 239 233 238 222 225 219 219 206 194 191 191 189 186 181 177 182 182 186 183 205 294 319 332 318 320 315 312 301 297 292 288 282 282 281 273 267 267 263 263
218 121 204 174 209 255 191 258 231 236 239 242 245 260 240 231 224 215 201 193 186 182 182 178 181 189 190 186 200 247 307 304 309 319 316 313 309 301 298 295 289 283 284 281 277 274 262 261 259
145 104 73 75 162 249 227 233 244 226 221 201 257 279 274 241 226 216 202 187 178 179 179 180 187 193 192 192 205 248 279 296 310 317 310 310 311 303 293 287 281 281 280 278 277 271 263 262 262
202 161 162 208 206 248 142 219 269 256 247 270 298 294 288 274 242 203 188 180 174 183 190 188 193 198 200 216 241 263 281 296 301 306 307 309 303 297 296 292 284 278 275 277 278 272 263 257 255
204 214 197 214 214 223 147 235 220 195 215 267 278 292 291 241 210 197 192 176 176 189 192 193 192 206 211 238 266 287 296 300 301 298 301 295 294 291 295 289 285 280 276 273 272 268 262 257 252
157 209 252 248 88 250 237 246 269 238 231 249 273 259 224 192 184 180 175 173 187 192 194 194 198 211 227 251 277 287 293 298 299 298 296 292 287 281 280 283 281 274 274 271 268 263 263 259 256
222 144 163 158 237 241 221 252 241 226 209 206 208 204 176 172 171 169 174 189 197 195 189 192 202 222 239 260 271 284 297 297 296 294 291 287 282 281 280 280 276 273 271 268 262 261 258 257 253
178 215 212 234 244 249 269 254 204 234 225 199 199 190 175 175 176 183 194 197 200 195 196 196 209 229 245 256 272 285 297 299 297 291 287 284 285 282 279 276 274 272 269 266 262 257 258 259 257
312 262 221 213 221 241 271 264 177 216 200 194 197 195 195 195 199 204 204 205 203 200 199 201 213 233 250 267 282 295 298 297 294 289 288 288 284 283 281 279 277 273 265 259 258 257 254 254 253